NOAA 16 DEB, 41079

Orbit data source: Space-Track

NOAA 16 DEB, 41079 is space debris in SSO originally from a launch on Thu, 21 Sep 2000 UTC launched from the Air Force Western Test Range (AFWTR). Debris objects in space refer to the collection of defunct objects orbiting the Earth. Examples of debris include non-operational satellites, rocket bodies, and fragments generated from explosions, collisions, or faulty payload assembly.

Loading next visibility...
Identifier
41079, 2000-055AN
Orbit
SSO
Country
Flag of USUS
Related business
Manufacturer
Unknown
Mission
Spacecraft
Bus & Motor
Unknown
Mass
Unknown
Launch date (UTC)
2000-09-21 (25 years ago)
Launch vehicle
Unknown
Launch site
Air Force Western Test Range (AFWTR)
Object type
Payload
Rocket body
Debris
Shape & HBR
Unknown shape, 0.1 m
Radar Cross Section
Small (<0.1 m²)

Expand to show TLE details & history
Last TLE update: 15 hours ago

TLE from 15 hours ago
0 NOAA 16 DEB
1 41079U 00055AN  26071.63590770  .00000612  00000-0  54454-3 0  9998
2 41079  99.1065  16.7949 0142339 287.1547  71.4066 13.84118104519106
Epoch: 2026-03-12T15:15Z
TLE epoch observation values (Epoch: 2026-03-12T15:15:42.425Z)
Latitude
0.00001°
Longitude
-22.41483°
Altitude
920.251 km
Speed
7.408 km/s
True Right ascension
01h 07m 10s
True Declination
0° 00' 00"
Sunlit
Object was in daylight at epoch
Visualization orbit readout
Latitude
Unknown
Longitude
Unknown
Altitude
Unknown
Speed
Unknown
Apparent Right ascension
Unknown
Apparent Declination
Unknown
Sunlit
N/A
Visualization observer readout
Local Sidereal Time
10:31:20
Azimuth
Unknown
Elevation
Unknown
Doppler factor
Unknown
Orbital elements
Apogee altitude
1,050.8 km
Perigee altitude
842.283 km
Semi-major axis
7,324.679 km
Eccentricity
0.01423
Inclination
99.1065°
RAAN
16.7949°
Arg. of periapsis
287.1547°
True anomaly
72.96118°
Mean anomaly
71.4066°
Eccentric anomaly
72.18303°
Mean motion
3.46227 °/min
Orbital period
103.98 mins
BSTAR
0.00054454
Loading maneuver chart data...
Computing Atmospheric mass density...
Loading historical data...
Loading historical data...
Loading historical data...
Loading historical data...
Loading historical data...
Loading historical data...
Loading historical data...

Documentation

Showing up to 5 results
|